Weather History for KLAX - April, 2013

Change the Weather History Date:

Sunday, April 7, 2013

  Actual Average Record
Temperature  
Mean Temperature 62 °F 59 °F  
Max Temperature 67 °F 66 °F 93 °F (1989)
Min Temperature 56 °F 53 °F 45 °F (1964)
Degree Days  
Heating Degree Days 3 6  
Month to date heating degree days 26 43  
Since 1 July heating degree days 1073 1193  
Cooling Degree Days 0 0  
Month to date cooling degree days 0 0  
Year to date cooling degree days 16 15  
Growing Degree Days 12 (Base 50)    
Moisture  
Dew Point 54 °F    
Average Humidity 78    
Maximum Humidity 93    
Minimum Humidity 63    
Precipitation  
Precipitation 0.00 in 0.03 in 0.48 in (2001)
Month to date precipitation 0.00 0.23  
Year to date precipitation 2.16 8.04  
Since 1 July precipitation 6.44  
Sea Level Pressure  
Sea Level Pressure 29.91 in    
Wind  
Wind Speed 6 mph (South)    
Max Wind Speed 16 mph    
Max Gust Speed 22 mph    
Visibility 9 miles    
Events      
T = Trace of Precipitation, MM = Missing Value Source: NWS Daily Summary

Daily Weather History Graph

Daily Weather History Graph

Search for Another Location

Airport or City:

Trip Planner

Search our weather history database for the weather conditions in past years. The results will help you decide how hot, cold, wet, or windy it might be!

Date:

Astronomy

Apr. 07, 2013 Rise Set
Actual Time 6:32 AM PDT 7:19 PM PDT
Civil Twilight 6:07 AM PDT 7:44 PM PDT
Nautical Twilight 5:37 AM PDT 8:14 PM PDT
Astronomical Twilight 5:06 AM PDT 8:45 PM PDT
Moon 4:45 AM PDT (4/7) 5:01 PM PDT (4/7)
Length of Visible Light 13h 37m
Length of Day
12h 46m
Waning Crescent, 7% of the Moon is Illuminated
Apr 7
Waning Crescent
Apr 10
New
Apr 18
First Quarter
Apr 25
Full
May 2
Last Quarter

Hourly Weather History & Observations

Time (PDT) Temp. Dew Point Humidity Pressure Visibility Wind Dir Wind Speed Gust Speed Precip Events Conditions
12:53 AM 59.0 °F 54.0 °F 83% 29.96 in 10.0 mi East 5.8 mph - N/A   Partly Cloudy
1:53 AM 57.9 °F 55.0 °F 90% 29.96 in 8.0 mi East 4.6 mph - N/A   Partly Cloudy
2:53 AM 57.0 °F 54.0 °F 89% 29.94 in 9.0 mi ENE 3.5 mph - N/A   Clear
3:53 AM 55.9 °F 53.1 °F 90% 29.91 in 9.0 mi East 5.8 mph - N/A   Partly Cloudy
4:53 AM 57.0 °F 54.0 °F 89% 29.91 in 9.0 mi East 4.6 mph - N/A   Scattered Clouds
5:53 AM 57.0 °F 53.1 °F 87% 29.92 in 10.0 mi Calm Calm - N/A   Scattered Clouds
6:18 AM 57.2 °F 53.6 °F 88% 29.93 in 10.0 mi Calm Calm - N/A   Mostly Cloudy
6:53 AM 57.9 °F 54.0 °F 87% 29.94 in 8.0 mi Calm Calm - N/A   Mostly Cloudy
7:53 AM 59.0 °F 55.0 °F 87% 29.96 in 8.0 mi SE 6.9 mph - N/A   Overcast
8:16 AM 60.8 °F 55.4 °F 82% 29.96 in 8.0 mi South 5.8 mph - N/A   Overcast
8:53 AM 61.0 °F 55.0 °F 81% 29.96 in 9.0 mi SSE 8.1 mph - N/A   Overcast
9:14 AM 60.8 °F 53.6 °F 77% 29.97 in 9.0 mi SSW 5.8 mph - N/A   Overcast
9:26 AM 60.8 °F 53.6 °F 77% 29.97 in 10.0 mi South 3.5 mph - N/A   Overcast
9:53 AM 62.1 °F 54.0 °F 75% 29.96 in 10.0 mi South 4.6 mph - N/A   Overcast
10:53 AM 64.9 °F 55.0 °F 70% 29.97 in 9.0 mi West 5.8 mph - N/A   Mostly Cloudy
11:53 AM 66.0 °F 54.0 °F 65% 29.96 in 10.0 mi West 8.1 mph - N/A   Mostly Cloudy
12:53 PM 66.0 °F 55.0 °F 68% 29.93 in 10.0 mi WSW 11.5 mph - N/A   Mostly Cloudy
1:53 PM 66.9 °F 55.0 °F 66% 29.91 in 9.0 mi West 12.7 mph - N/A   Scattered Clouds
2:53 PM 66.9 °F 55.0 °F 66% 29.90 in 10.0 mi SW 15.0 mph - N/A   Scattered Clouds
3:53 PM 66.0 °F 54.0 °F 65% 29.87 in 10.0 mi SW 10.4 mph - N/A   Scattered Clouds
4:53 PM 64.9 °F 52.0 °F 63% 29.85 in 9.0 mi SW 9.2 mph 17.3 mph N/A   Scattered Clouds
5:53 PM 64.9 °F 54.0 °F 68% 29.84 in 10.0 mi Variable 5.8 mph - N/A   Scattered Clouds
6:53 PM 63.0 °F 53.1 °F 70% 29.83 in 10.0 mi South 4.6 mph - N/A   Scattered Clouds
7:53 PM 62.1 °F 53.1 °F 72% 29.83 in 10.0 mi South 5.8 mph - N/A   Partly Cloudy
8:53 PM 62.1 °F 52.0 °F 70% 29.82 in 10.0 mi South 6.9 mph - N/A   Partly Cloudy
9:53 PM 61.0 °F 54.0 °F 78% 29.82 in 10.0 mi ESE 6.9 mph - N/A   Partly Cloudy
10:53 PM 60.1 °F 53.1 °F 78% 29.82 in 10.0 mi South 5.8 mph - N/A   Clear
11:53 PM 59.0 °F 53.1 °F 81% 29.82 in 10.0 mi East 3.5 mph - N/A   Partly Cloudy